Weather reports worldwide

Advertisment
Gogerddan, United Kingdom (99150): temperature & dewpoint: 11.12.2017 23:00:00 - 17.12.2017 23:00:00 (GMT)Gogerddan, United Kingdom (99150): temperature -20cm & temperature -100cm: 11.12.2017 23:00:00 - 17.12.2017 23:00:00 (GMT)Gogerddan, United Kingdom (99150): precipitation: 11.12.2017 23:00:00 - 17.12.2017 23:00:00 (GMT)
Date & Time tt [°C] td [°C] tt -20cm [°C] tt -100cm [°C] rr [mm]
17.12.2017 23:00:00 - - - - -
17.12.2017 22:00:00 7,6 6,1 - - 0,0
17.12.2017 21:00:00 8,2 6,8 - - 0,0
17.12.2017 20:00:00 8,8 7,2 - - 0,0
17.12.2017 19:00:00 9,6 9,4 - - 0,0
17.12.2017 18:00:00 9,9 9,8 - - 0,0
17.12.2017 17:00:00 9,5 9,3 - - 0,0
17.12.2017 16:00:00 9,5 9,3 - - 0,0
17.12.2017 15:00:00 9,6 9,3 - - 0,0
17.12.2017 14:00:00 9,6 9,4 - - 0,6
17.12.2017 13:00:00 9,7 9,4 - - 2,2
17.12.2017 12:00:00 9,5 9,2 - - 2,4
17.12.2017 11:00:00 9,1 8,7 - - 2,6
17.12.2017 10:00:00 8,5 7,8 - - 2,2
17.12.2017 09:00:00 8,0 7,5 6,7 8,4 0,4
17.12.2017 08:00:00 7,5 7,2 - - 0,2
17.12.2017 07:00:00 6,0 5,6 - - 0,0
17.12.2017 06:00:00 5,3 5,0 - - 0,0
17.12.2017 05:00:00 4,2 3,8 - - 0,0
17.12.2017 04:00:00 4,2 3,6 - - 0,0
17.12.2017 03:00:00 4,1 3,4 - - 0,0
17.12.2017 02:00:00 3,8 3,2 - - 0,0
17.12.2017 01:00:00 3,8 3,1 - - 0,0
17.12.2017 00:00:00 3,2 2,4 - - 0,0
16.12.2017 23:00:00 4,0 2,9 - - 0,0
16.12.2017 22:00:00 5,2 3,6 - - 0,0
16.12.2017 21:00:00 6,3 3,6 - - 0,0
16.12.2017 20:00:00 6,4 3,6 - - 0,0
16.12.2017 19:00:00 6,2 4,3 - - 0,0
16.12.2017 18:00:00 5,9 4,1 - - 0,0
16.12.2017 17:00:00 6,4 4,6 - - 0,0
16.12.2017 16:00:00 6,7 4,6 - - 0,0
16.12.2017 15:00:00 7,1 4,8 - - 0,0
16.12.2017 14:00:00 6,8 4,9 - - 1,0
16.12.2017 13:00:00 7,2 5,2 - - 0,0
16.12.2017 12:00:00 6,8 4,4 - - 0,0
16.12.2017 11:00:00 6,6 3,5 - - 0,0
16.12.2017 10:00:00 5,8 2,9 - - 0,4
16.12.2017 09:00:00 1,0 0,6 6,7 8,5 0,0
16.12.2017 08:00:00 1,3 0,8 - - 0,0
16.12.2017 07:00:00 1,0 0,3 - - 0,0
16.12.2017 06:00:00 1,2 -0,2 - - 0,0
16.12.2017 05:00:00 2,8 2,0 - - 0,0
16.12.2017 04:00:00 1,3 -0,3 - - 0,0
16.12.2017 03:00:00 3,0 1,3 - - 0,2
16.12.2017 02:00:00 2,1 1,2 - - 0,0
16.12.2017 01:00:00 3,1 1,7 - - 0,2
16.12.2017 00:00:00 0,2 -0,2 - - 0,0
15.12.2017 23:00:00 -0,5 -1,0 - - 0,0
15.12.2017 22:00:00 -1,8 -2,6 - - 0,0
15.12.2017 21:00:00 -0,4 -1,1 - - 0,0
15.12.2017 20:00:00 -0,6 -1,3 - - 0,0
15.12.2017 19:00:00 0,6 -0,3 - - 0,0
15.12.2017 18:00:00 - - - - 0,0
15.12.2017 17:00:00 4,4 1,6 - - 0,0
15.12.2017 16:00:00 6,1 1,9 - - 0,0
15.12.2017 15:00:00 6,7 2,5 - - 0,0
15.12.2017 14:00:00 6,4 3,2 - - 0,0
15.12.2017 13:00:00 6,9 2,9 - - 0,0
15.12.2017 12:00:00 6,7 2,7 - - 0,0
15.12.2017 11:00:00 6,3 2,5 - - 0,0
15.12.2017 10:00:00 3,7 1,5 - - 0,0
15.12.2017 09:00:00 2,6 1,1 6,9 8,7 0,0
15.12.2017 08:00:00 3,7 1,0 - - 0,0
15.12.2017 07:00:00 3,4 0,4 - - 0,0
15.12.2017 06:00:00 4,1 0,7 - - 0,0
15.12.2017 05:00:00 4,6 1,6 - - 0,0
15.12.2017 04:00:00 5,7 3,7 - - 0,0
15.12.2017 03:00:00 5,7 3,2 - - 0,6
15.12.2017 02:00:00 6,9 4,3 - - 0,0
15.12.2017 01:00:00 6,2 4,7 - - 2,2
15.12.2017 00:00:00 7,0 3,6 - - 0,0
14.12.2017 23:00:00 6,8 3,3 - - 0,0
14.12.2017 22:00:00 6,8 3,3 - - 0,0
14.12.2017 21:00:00 6,9 3,1 - - 0,0
14.12.2017 20:00:00 5,9 1,8 - - 0,0
14.12.2017 19:00:00 6,3 3,4 - - 0,4
14.12.2017 18:00:00 5,7 4,3 - - 0,4
14.12.2017 17:00:00 6,5 3,5 - - 0,0
14.12.2017 16:00:00 6,4 3,4 - - 0,0
14.12.2017 15:00:00 6,6 2,9 - - 0,0
14.12.2017 14:00:00 6,7 2,5 - - 0,0
14.12.2017 13:00:00 6,8 2,0 - - 0,0
14.12.2017 12:00:00 6,5 2,0 - - 0,0
14.12.2017 11:00:00 6,1 1,9 - - 0,0
14.12.2017 10:00:00 6,0 1,5 - - 0,0
14.12.2017 09:00:00 5,9 2,1 6,7 8,7 0,0
14.12.2017 08:00:00 5,6 1,9 - - 0,0
14.12.2017 07:00:00 5,8 1,9 - - 0,0
14.12.2017 06:00:00 5,4 2,0 - - 0,6
14.12.2017 05:00:00 5,9 1,1 - - 0,0
14.12.2017 04:00:00 6,0 1,9 - - 0,0
14.12.2017 03:00:00 6,2 2,1 - - 0,0
14.12.2017 02:00:00 6,1 2,3 - - 0,2
14.12.2017 01:00:00 6,1 2,2 - - 0,0
14.12.2017 00:00:00 6,1 2,6 - - 0,0
13.12.2017 23:00:00 5,8 1,8 - - 0,0
13.12.2017 22:00:00 5,8 2,1 - - 0,0
13.12.2017 21:00:00 5,2 0,7 - - 0,0
13.12.2017 20:00:00 5,1 0,3 - - 0,0
13.12.2017 19:00:00 5,5 1,6 - - 0,2
13.12.2017 18:00:00 4,7 3,6 - - 3,0
13.12.2017 17:00:00 6,9 2,0 - - 0,0
13.12.2017 16:00:00 7,0 1,5 - - 0,0
13.12.2017 15:00:00 6,6 0,1 - - 0,0
13.12.2017 14:00:00 7,2 1,4 - - 0,0
13.12.2017 13:00:00 7,1 0,4 - - 0,0
13.12.2017 12:00:00 8,5 6,5 - - 1,0
13.12.2017 11:00:00 8,1 7,3 - - 1,8
13.12.2017 10:00:00 7,5 6,7 - - 2,4
13.12.2017 09:00:00 7,2 5,7 6,7 8,9 0,0
13.12.2017 08:00:00 7,5 5,2 - - 0,0
13.12.2017 07:00:00 8,0 5,4 - - 0,0
13.12.2017 06:00:00 7,9 5,6 - - 0,4
13.12.2017 05:00:00 7,8 5,7 - - 0,0
13.12.2017 04:00:00 8,5 5,9 - - 0,0
13.12.2017 03:00:00 8,1 5,7 - - 0,0
13.12.2017 02:00:00 7,7 5,7 - - 0,0
13.12.2017 01:00:00 7,6 5,0 - - 0,0
13.12.2017 00:00:00 7,3 5,4 - - 0,0
12.12.2017 23:00:00 7,5 5,6 - - 0,0
12.12.2017 22:00:00 7,9 7,4 - - 1,4
12.12.2017 21:00:00 6,3 5,8 - - 1,0
12.12.2017 20:00:00 5,0 4,2 - - 0,4
12.12.2017 19:00:00 4,7 3,7 - - 0,8
12.12.2017 18:00:00 4,3 3,0 - - 0,8
12.12.2017 17:00:00 4,8 2,0 - - 0,0
12.12.2017 16:00:00 4,4 1,9 - - 0,0
12.12.2017 15:00:00 4,4 1,6 - - 0,0
12.12.2017 14:00:00 4,8 1,9 - - 0,0
12.12.2017 13:00:00 4,3 1,9 - - 0,0
12.12.2017 12:00:00 3,0 1,7 - - 0,0
12.12.2017 11:00:00 1,3 0,8 - - 0,2
12.12.2017 10:00:00 -0,2 -0,6 - - 0,0
12.12.2017 09:00:00 -1,9 -2,4 6,7 9,0 0,0
12.12.2017 08:00:00 -3,4 -4,0 - - 0,0
12.12.2017 07:00:00 -3,7 -4,3 - - 0,0
12.12.2017 06:00:00 -3,8 -4,4 - - 0,0
12.12.2017 05:00:00 -3,6 -4,1 - - 0,0
12.12.2017 04:00:00 -3,5 -4,1 - - 0,0
12.12.2017 03:00:00 -3,5 -4,1 - - 0,0
12.12.2017 02:00:00 -2,9 -3,5 - - 0,0
12.12.2017 01:00:00 -2,7 -3,3 - - 0,0
12.12.2017 00:00:00 -1,7 -2,2 - - 0,0
11.12.2017 23:00:00 -2,9 -3,5 - - 0,0

tt = temperature
td = dewpoint
tt -20cm = temperature -20cm
tt -100cm = temperature -100cm
rr = precipitation

Next stations